TimeCST,TemperatureF,Dew PointF,Humidity,Sea Level PressureIn,VisibilityMPH,Wind Direction,Wind SpeedMPH,Gust SpeedMPH,PrecipitationIn,Events,Conditions,WindDirDegrees,DateUTC
12:15 AM,33.8,32.0,93,29.79,0.5,Calm,Calm,-,N/A,,Overcast,0,2013-01-28 06:15:00
12:35 AM,33.8,32.0,93,29.78,0.2,Calm,Calm,-,N/A,,Overcast,0,2013-01-28 06:35:00
12:55 AM,32.0,30.2,93,29.78,0.2,Calm,Calm,-,N/A,,Overcast,0,2013-01-28 06:55:00
1:15 AM,32.0,32.0,100,29.79,0.2,WNW,3.5,-,N/A,,Overcast,300,2013-01-28 07:15:00
1:35 AM,32.0,30.2,93,29.80,0.5,Calm,Calm,-,N/A,,Overcast,0,2013-01-28 07:35:00
1:55 AM,32.0,30.2,93,29.81,0.5,West,4.6,-,N/A,,Overcast,280,2013-01-28 07:55:00
2:15 AM,32.0,30.2,93,29.82,0.2,WNW,4.6,-,N/A,,Overcast,290,2013-01-28 08:15:00
2:35 AM,32.0,30.2,93,29.82,0.5,WNW,5.8,-,N/A,,Overcast,300,2013-01-28 08:35:00
2:55 AM,32.0,30.2,93,29.84,0.5,NW,9.2,-,N/A,,Overcast,310,2013-01-28 08:55:00
3:15 AM,32.0,30.2,93,29.83,0.8,NW,5.8,-,N/A,,Overcast,310,2013-01-28 09:15:00
3:35 AM,32.0,30.2,93,29.84,0.5,WNW,6.9,-,N/A,,Overcast,300,2013-01-28 09:35:00
3:55 AM,32.0,30.2,93,29.83,0.5,NW,4.6,-,N/A,,Overcast,310,2013-01-28 09:55:00
4:15 AM,32.0,30.2,93,29.85,0.5,WNW,4.6,-,N/A,,Overcast,300,2013-01-28 10:15:00
4:35 AM,32.0,30.2,93,29.86,0.5,West,3.5,-,N/A,,Overcast,280,2013-01-28 10:35:00
4:55 AM,32.0,30.2,93,29.86,0.5,WNW,6.9,-,N/A,,Overcast,290,2013-01-28 10:55:00
5:15 AM,32.0,30.2,93,-9999,0.5,NW,3.5,-,N/A,,Overcast,320,2013-01-28 11:15:00
5:55 AM,30.2,30.2,100,29.85,0.5,Calm,Calm,-,N/A,,Overcast,0,2013-01-28 11:55:00
6:15 AM,30.2,30.2,100,29.86,0.2,Calm,Calm,-,N/A,,Overcast,0,2013-01-28 12:15:00
6:35 AM,30.2,30.2,100,29.86,0.2,Calm,Calm,-,N/A,,Overcast,0,2013-01-28 12:35:00
6:55 AM,30.2,30.2,100,29.87,0.2,Calm,Calm,-,N/A,,Overcast,0,2013-01-28 12:55:00
7:15 AM,30.2,30.2,100,29.87,0.5,NNW,3.5,-,N/A,,Overcast,340,2013-01-28 13:15:00
7:35 AM,30.2,30.2,100,29.88,0.5,Calm,Calm,-,N/A,,Overcast,0,2013-01-28 13:35:00
7:55 AM,30.2,30.2,100,29.88,0.2,North,3.5,-,N/A,,Overcast,360,2013-01-28 13:55:00
8:15 AM,30.2,30.2,100,29.88,0.2,NE,4.6,-,N/A,,Overcast,40,2013-01-28 14:15:00
8:35 AM,30.2,28.4,93,29.88,0.2,ENE,4.6,-,N/A,,Overcast,60,2013-01-28 14:35:00
8:55 AM,30.2,30.2,100,29.90,0.2,South,4.6,-,N/A,,Overcast,170,2013-01-28 14:55:00
9:15 AM,30.2,30.2,100,29.90,0.2,SSE,5.8,-,N/A,,Overcast,160,2013-01-28 15:15:00
9:35 AM,30.2,28.4,93,29.90,0.2,South,6.9,-,N/A,,Overcast,180,2013-01-28 15:35:00
9:55 AM,30.2,30.2,100,29.89,0.2,SSE,6.9,-,N/A,,Overcast,150,2013-01-28 15:55:00
10:15 AM,30.2,30.2,100,29.88,0.2,ESE,6.9,-,N/A,,Overcast,120,2013-01-28 16:15:00
10:35 AM,30.2,30.2,100,29.88,0.2,SE,6.9,-,N/A,,Overcast,140,2013-01-28 16:35:00
10:55 AM,32.0,30.2,93,29.89,0.2,South,3.5,-,N/A,,Overcast,170,2013-01-28 16:55:00
11:15 AM,32.0,32.0,100,29.88,0.2,SE,4.6,-,N/A,,Overcast,130,2013-01-28 17:15:00
11:35 AM,32.0,32.0,100,29.89,0.2,SSE,3.5,-,N/A,,Overcast,160,2013-01-28 17:35:00
11:55 AM,33.8,32.0,93,29.88,0.2,South,6.9,-,N/A,,Overcast,180,2013-01-28 17:55:00
12:15 PM,33.8,32.0,93,29.86,0.2,South,5.8,-,N/A,,Overcast,180,2013-01-28 18:15:00
12:35 PM,33.8,33.8,100,29.85,0.2,Calm,Calm,-,N/A,,Overcast,0,2013-01-28 18:35:00
12:55 PM,33.8,32.0,93,29.84,0.2,ESE,4.6,-,N/A,,Overcast,120,2013-01-28 18:55:00
1:15 PM,33.8,33.8,100,29.82,0.2,ESE,8.1,-,N/A,,Overcast,110,2013-01-28 19:15:00
1:35 PM,35.6,33.8,93,29.81,0.2,East,11.5,-,N/A,,Overcast,100,2013-01-28 19:35:00
1:55 PM,35.6,33.8,93,29.79,0.2,ESE,11.5,-,N/A,,Overcast,120,2013-01-28 19:55:00
2:15 PM,35.6,33.8,93,29.79,0.2,ESE,10.4,-,N/A,,Overcast,120,2013-01-28 20:15:00
2:35 PM,35.6,33.8,93,29.78,0.5,ESE,10.4,-,N/A,,Overcast,120,2013-01-28 20:35:00
2:55 PM,35.6,35.6,100,29.78,0.5,SE,10.4,-,N/A,,Overcast,140,2013-01-28 20:55:00
3:15 PM,35.6,35.6,100,29.77,2.0,SE,6.9,18.4,N/A,,Overcast,130,2013-01-28 21:15:00
3:35 PM,35.6,33.8,93,29.76,1.5,SE,9.2,-,N/A,,Overcast,130,2013-01-28 21:35:00
3:55 PM,35.6,35.6,100,29.75,1.5,ESE,10.4,-,N/A,,Overcast,120,2013-01-28 21:55:00
4:15 PM,35.6,35.6,100,29.75,1.8,ESE,11.5,-,N/A,,Overcast,120,2013-01-28 22:15:00
4:35 PM,35.6,35.6,100,29.74,2.0,ESE,10.4,-,N/A,,Overcast,120,2013-01-28 22:35:00
4:55 PM,35.6,35.6,100,29.74,4.0,ESE,6.9,-,N/A,,Overcast,120,2013-01-28 22:55:00
5:15 PM,35.6,33.8,93,29.74,5.0,SE,8.1,-,N/A,,Overcast,130,2013-01-28 23:15:00
5:35 PM,35.6,33.8,93,29.72,2.5,ESE,11.5,-,N/A,,Overcast,120,2013-01-28 23:35:00
5:55 PM,35.6,33.8,93,29.72,2.0,SE,10.4,-,N/A,,Overcast,130,2013-01-28 23:55:00
6:15 PM,35.6,33.8,93,29.71,1.8,ESE,12.7,-,N/A,,Overcast,120,2013-01-29 00:15:00
6:35 PM,35.6,33.8,93,29.70,1.5,ESE,11.5,-,N/A,,Overcast,120,2013-01-29 00:35:00
6:55 PM,35.6,33.8,93,29.70,1.2,SE,11.5,16.1,N/A,,Overcast,130,2013-01-29 00:55:00
7:15 PM,35.6,33.8,93,29.68,1.0,ESE,11.5,-,N/A,,Overcast,120,2013-01-29 01:15:00
7:35 PM,35.6,35.6,100,29.68,1.0,ESE,9.2,-,N/A,,Overcast,120,2013-01-29 01:35:00
7:55 PM,35.6,33.8,93,29.67,1.0,SE,9.2,-,N/A,,Overcast,130,2013-01-29 01:55:00
8:15 PM,35.6,35.6,100,29.66,1.2,SE,8.1,-,N/A,,Overcast,130,2013-01-29 02:15:00
8:35 PM,37.4,35.6,93,29.64,1.0,SE,9.2,-,N/A,,Overcast,130,2013-01-29 02:35:00
8:55 PM,37.4,35.6,93,29.64,0.5,SE,5.8,-,N/A,,Overcast,130,2013-01-29 02:55:00
9:15 PM,37.4,37.4,100,29.63,0.5,SE,6.9,-,N/A,,Overcast,130,2013-01-29 03:15:00
9:35 PM,37.4,35.6,93,29.61,0.5,SE,5.8,-,N/A,,Overcast,130,2013-01-29 03:35:00
9:55 PM,37.4,35.6,93,29.60,0.5,SE,4.6,-,N/A,,Overcast,140,2013-01-29 03:55:00
10:15 PM,39.2,37.4,93,29.60,0.2,Calm,Calm,-,N/A,,Overcast,0,2013-01-29 04:15:00
10:35 PM,37.4,37.4,100,29.60,0.2,Calm,Calm,-,N/A,,Overcast,0,2013-01-29 04:35:00
10:55 PM,37.4,35.6,93,29.58,0.2,Calm,Calm,-,N/A,Thunderstorm,Overcast,0,2013-01-29 04:55:00
11:15 PM,37.4,35.6,93,29.57,0.2,Calm,Calm,-,N/A,,Overcast,0,2013-01-29 05:15:00
11:35 PM,37.4,35.6,93,29.57,0.2,NW,4.6,-,N/A,,Overcast,310,2013-01-29 05:35:00
11:55 PM,37.4,35.6,93,29.57,0.2,NW,4.6,-,N/A,,Overcast,320,2013-01-29 05:55:00